Avoca, PA

5:14 PM EST on November 11, 2019 (GMT -0500)
Wilkes-Barre-Scranton International

Weather History for KAVP - September, 2019

Change the Weather History Date:

Wednesday, September 25, 2019

  Actual Average Record
Temperature  
Mean Temperature 63 °F 59 °F  
Max Temperature 77 °F 69 °F 92 °F (2017)
Min Temperature 49 °F 49 °F 34 °F (1928)
Degree Days  
Heating Degree Days 2 7  
Month to date heating degree days 24 95  
Since 1 July heating degree days 25 121  
Cooling Degree Days 0 1  
Month to date cooling degree days 81 49  
Year to date cooling degree days 820 573  
Growing Degree Days 12 (Base 50)    
Moisture  
Dew Point 51 °F    
Average Humidity 67    
Maximum Humidity 93    
Minimum Humidity 40    
Precipitation  
Precipitation 0.00 in 0.14 in 2.53 in (1902)
Month to date precipitation 0.79 3.36  
Year to date precipitation 38.45 28.39  
Sea Level Pressure  
Sea Level Pressure 29.88 in    
Wind  
Wind Speed 4 mph (South)    
Max Wind Speed 14 mph    
Max Gust Speed 17 mph    
Visibility 10 miles    
Events      
T = Trace of Precipitation, MM = Missing Value Source: NWS Daily Summary

Daily Weather History Graph

Daily Weather History Graph

Search for Another Location

Airport or City:

Astronomy

Sep. 25, 2019 Rise Set
Actual Time 6:53 AM EDT 6:55 PM EDT
Civil Twilight 6:25 AM EDT 7:22 PM EDT
Nautical Twilight 5:53 AM EDT 7:55 PM EDT
Astronomical Twilight 5:20 AM EDT 8:27 PM EDT
Moon 2:40 AM EDT (9/25) 5:28 PM EDT (9/25)
Length of Visible Light 12h 57m
Length of Day
12h 02m
Waning Crescent, 14% of the Moon is Illuminated
Sep 25
Waning Crescent
Sep 28
New
Oct 5
First Quarter
Oct 13
Full
Oct 21
Last Quarter

Hourly Weather History & Observations

Time (EDT) Temp. Dew Point Humidity Pressure Visibility Wind Dir Wind Speed Gust Speed Precip Events Conditions
1:54 AM 54.0 °F 50.0 °F 86% 29.89 in 10.0 mi ESE 3.5 mph - N/A   Overcast
2:54 AM 53.1 °F 48.9 °F 86% 29.88 in 10.0 mi East 5.8 mph - N/A   Clear
3:54 AM 50.0 °F 48.0 °F 93% 29.90 in 10.0 mi Calm Calm - N/A   Clear
4:54 AM 48.9 °F 46.9 °F 93% 29.92 in 10.0 mi Calm Calm - N/A   Clear
5:54 AM 50.0 °F 48.0 °F 93% 29.92 in 10.0 mi Calm Calm - N/A   Clear
6:54 AM 50.0 °F 46.9 °F 89% 29.93 in 10.0 mi East 4.6 mph - N/A   Clear
7:54 AM 52.0 °F 48.0 °F 86% 29.94 in 10.0 mi Calm Calm - N/A   Clear
8:54 AM 55.9 °F 50.0 °F 80% 29.94 in 10.0 mi West 3.5 mph - N/A   Clear
9:54 AM 61.0 °F 52.0 °F 72% 29.94 in 10.0 mi WSW 8.1 mph - N/A   Clear
10:54 AM 64.9 °F 52.0 °F 63% 29.94 in 10.0 mi SSW 6.9 mph - N/A   Clear
11:54 AM 70.0 °F 54.0 °F 57% 29.92 in 10.0 mi WSW 4.6 mph - N/A   Clear
12:54 PM 73.0 °F 52.0 °F 48% 29.89 in 10.0 mi Variable 4.6 mph - N/A   Clear
1:54 PM 75.0 °F 52.0 °F 44% 29.86 in 10.0 mi WSW 8.1 mph - N/A   Clear
2:54 PM 75.9 °F 52.0 °F 43% 29.84 in 10.0 mi West 5.8 mph - N/A   Clear
3:54 PM 75.9 °F 52.0 °F 43% 29.83 in 10.0 mi SW 6.9 mph - N/A   Clear
4:54 PM 77.0 °F 52.0 °F 42% 29.82 in 10.0 mi Variable 5.8 mph - N/A   Clear
5:54 PM 75.0 °F 51.1 °F 43% 29.83 in 10.0 mi WSW 9.2 mph - N/A   Clear
6:54 PM 70.0 °F 54.0 °F 57% 29.84 in 10.0 mi SSE 3.5 mph - N/A   Clear
7:54 PM 66.9 °F 53.1 °F 61% 29.84 in 10.0 mi Calm Calm - N/A   Clear
8:54 PM 63.0 °F 54.0 °F 72% 29.86 in 10.0 mi Calm Calm - N/A   Clear
9:54 PM 60.1 °F 53.1 °F 78% 29.86 in 10.0 mi ESE 3.5 mph - N/A   Clear
10:54 PM 60.1 °F 52.0 °F 75% 29.86 in 10.0 mi ESE 4.6 mph - N/A   Clear
11:54 PM 59.0 °F 51.1 °F 75% 29.85 in 10.0 mi ESE 4.6 mph - N/A   Clear